099  
ASUS42 KCHS 170112  
RWRCHS  
 
REGIONAL WEATHER ROUNDUP  
NATIONAL WEATHER SERVICE CHARLESTON SC  
800 PM EST WED JAN 16 2019  
 
NOTE: "FAIR" INDICATES FEW OR NO CLOUDS BELOW 12,000 FEET WITH NO  
SIGNIFICANT WEATHER AND/OR S TO VISIBILITY
.  
 
NOT ALL STATIONS ARE QUALITY CONTROLLED. USE DATA WITH CAUTION,  
ESPECIALLY DEWPOINT OBSERVATIONS.  
 
SCZ027-030-031-034>040-042>050-170200-   
..SOUTHEAST SOUTH CAROLINA
 
 
 
CITY SKY/WX TMP DP RH WIND PRES REMARKS
 
N CHARLESTON FAIR 46 39 76 CALM 30.24R  
WATERFRONT PRK N/A 50 44 80 VRB3 30.10R  
MOUNT PLEASANT FAIR 43 43 100 CALM 30.24S  
JOHNS ISLAND FAIR 43 41 93 CALM 30.24S  
PINOPOLIS N/A 48 41 76 CALM 30.17R  
MONCKS CORNER FAIR 41 39 93 CALM 30.24S  
SUMMERVILLE FAIR 41 37 87 CALM 30.25R  
BEAUFORT MCAS FAIR 44 41 89 CALM 30.25R  
BEAUFORT ARPT FAIR 45 43 93 CALM 30.24S  
HILTON HEAD IS CLEAR 45 41 87 S5 30.25R  
WALTERBORO FAIR 39 36 87 CALM 30.26R  
ALLENDALE FAIR 41 37 87 CALM 30.24R  
   
..SOUTHERN MIDLANDS AND PEE DEE
 
 
 
CITY SKY/WX TMP DP RH WIND PRES REMARKS
 
GEORGETOWN FAIR 39 39 100 CALM 30.25S  
KINGSTREE FAIR 37 36 93 CALM 30.24S  
ORANGEBURG FAIR 41 34 76 CALM 30.24R  
BARNWELL FAIR 39 36 87 CALM 30.24R  
AIKEN FAIR 37 36 93 CALM 30.25S  
MANNING FAIR 37 37 100 CALM 30.25R  
COLUMBIA FAIR 40 37 89 CALM 30.22S  
SUMTER FAIR 42 36 79 CALM 30.22S  
FLORENCE FAIR 42 35 76 CALM 30.24R  
MYRTLE BEACH FAIR 43 41 93 CALM 30.25R  
N MYRTLE BEACH FAIR 41 39 93 CALM 30.24R  
 

 
 
GAZ063-065-086>088-099>101-113>116-118-119-134>141-150-170200-   
..SOUTHEAST GEORGIA
 
 
 
CITY SKY/WX TMP DP RH WIND PRES REMARKS
 
SAVANNAH ARPT FAIR 44 36 73 CALM 30.25R  
HUNTER AAF FAIR 45 35 66 SW3 30.22R  
FORT STEWART FAIR 41 37 85 CALM 30.23R  
STATESBORO FAIR 39 37 94 CALM 30.25R  
SYLVANIA FAIR 42 37 83 CALM 30.25S  
CLAXTON FAIR 41 39 93 CALM 30.26R  
   
..CSRA, CENTRAL AND FAR SOUTHEAST GEORGIA
 
 
 
CITY SKY/WX TMP DP RH WIND PRES REMARKS
 
THOMSON FAIR 40 38 93 CALM 30.27S  
AUGUSTA-BUSH FAIR 41 36 82 CALM 30.23R  
AUGUSTA-DANIEL FAIR 49 33 54 SE5 30.23R  
SWAINSBORO FAIR 41 39 93 CALM 30.25R  
VIDALIA FAIR 45 36 70 CALM 30.25R  
EASTMAN FAIR 42 39 89 CALM 30.28S  
HAZLEHURST FAIR 45 38 76 CALM 30.25R  
ALMA FAIR 43 38 82 CALM 30.26R  
WAYCROSS FAIR 44 37 75 CALM 30.26R  
JESUP FAIR 43 37 81 CALM 30.26R  
BAXLEY FAIR 41 41 100 CALM 30.25S  
BRUNSWICK FAIR 41 37 87 CALM 30.26R  
SAINT SIMONS FAIR 47 43 86 CALM 30.25R  
 

 
 
SCZ027-028-034-036>038-045-046-048>050-GAZ119-141-170200-   
..LAKE AND SUPPLEMENTAL COASTAL OBSERVATIONS
 
 
 
STATION/POSITION TIME TEMP WIND PRES WAVE SWELL
 
AIR SEA DIR/SP/G HT/PER HT/PER/DIR  
(UTC) (F) (DEG/KT/KT) (MB) (FT/S) (FT/S/D)  
WINYAH BAY 2345 47 240/ 2 1023.0  
LAKE MURRAY 0020 48 CALM / 2 1022.7  
ACE BASIN NERRS 2345 47 CALM 1024.0  
FORT PULASKI 0042 51 54 220/ 3/ 3 1024.3R  
SAPELO ISLAND 0000 44 150/ 2 1024.0  
 

 
 
ANZ835-935-AMZ111-154-330-350-352-354-370-450-454-472-170200-   
..C-MAN AND BUOY OBSERVATIONS
 
 
 
STATION/POSITION TIME TEMP WIND PRES WAVE SWELL
 
AIR SEA DIR/SP/G HT/PER HT/PER/DIR  
(UTC) (F) (DEG/KT/KT) (MB) (FT/S) (FT/S/D)  
BUOY 41004 0050 63 290/ 6/ 10 1024.5R 2/11 2/100/11  
BUOY 41008 0050 54 57 220/ 6/ 8 1024.2R 2/12 2/ 70/12  
FOLLY BEACH CMAN 0000 50 240/ 5/ 6 1024.2R  
CAPERS NEARSHORE 0008 53 54 250/ 10/ 12 1024.2R  
 
 
STATION/POSITION TIME TEMP WIND PRES WAVE SWELL
 
AIR SEA DIR/SP/G HT/PER HT/PER/DIR  
(UTC) (F) (DEG/KT/KT) (MB) (FT/S) (FT/S/D)  
5E ST. MARYS GA 0100 57 N/A 2/13 2/ 90/13  
FRYING PAN BUOY 0050 54 68 320/ 6/ 10 1024.1R 3/11 3/100/11  
BUOY 41025 NOT AVBL  
CAPE LOOKOUT NC 0000 240/ 6/ 7 1023.3R  
BUOY 41002 0050 1022.3R  
BUOY 41010 0050 67 76 10/ 8/ 12 1022.8R  
ST AUGUSTINE FL 0100 53 59 320/ 2/ 3 1024.8R  
 

 
 
 
CLICK HERE TO GO TO PREVIOUS BULLETINS.

The Nexlab SC Page
The Nexlab GA Page Main Text Page